GW3419 Weather Reports


Display with metric or nautical units.
time (UTC)temp
F
wind
direction
speed
MPH
gust
MPH
rain 1hr
in
rain 24hr
in
rain mn
in
humidity
%
barometer
mb
20260505075944 38 340 2.0 3.0 0.00 0.00 0.00 66 1001.3
20260505075441 39 246 0.0 3.0 0.00 0.00 0.00 65 1001.6
20260505074938 39 219 2.0 4.0 0.00 0.00 0.00 65 1001.2
20260505074436 39 275 0.0 5.0 0.00 0.00 0.00 64 1001.3
20260505073933 40 279 4.0 5.0 0.00 0.00 0.00 63 1001.4
20260505073430 39 241 4.0 7.0 0.00 0.00 0.00 63 1001.2
20260505072927 39 330 3.0 5.0 0.00 0.00 0.00 63 1001.3
20260505072423 39 7 1.0 6.0 0.00 0.00 0.00 63 1001.4
20260505071919 40 250 2.0 7.0 0.00 0.00 0.00 62 1001.4
20260505071415 40 264 2.0 5.0 0.00 0.00 0.00 61 1001.2
20260505070914 41 335 0.0 4.0 0.00 0.00 0.00 61 1001.0
20260505070410 41 259 3.0 5.0 0.00 0.00 0.00 60 1001.2
20260505065906 41 327 4.0 7.0 0.00 0.00 0.00 59 1001.3
20260505065403 41 337 2.0 7.0 0.00 0.00 0.00 59 1001.0
20260505064859 41 8 1.0 6.0 0.00 0.00 0.00 59 1001.2
20260505064357 41 296 3.0 9.0 0.00 0.00 0.00 59 1001.3
20260505063855 41 49 2.0 7.0 0.00 0.00 0.00 59 1001.1
20260505063355 41 271 1.0 5.0 0.00 0.00 0.00 59 1001.2
20260505062852 41 307 3.0 9.0 0.00 0.00 0.00 60 1001.0
20260505062350 41 294 0.0 5.0 0.00 0.00 0.00 60 1001.3
20260505061846 41 223 1.0 6.0 0.00 0.00 0.00 60 1001.1
20260505061344 41 279 1.0 7.0 0.00 0.00 0.00 59 1001.0
20260505060842 41 353 1.0 5.0 0.00 0.00 0.00 59 1001.1
20260505060338 41 205 1.0 5.0 0.00 0.00 0.00 59 1001.4
20260505055834 41 241 0.0 4.0 0.00 0.00 0.00 58 1001.0
20260505055330 41 274 1.0 7.0 0.00 0.00 0.00 58 1001.0
20260505054828 42 306 2.0 6.0 0.00 0.00 0.00 58 1001.2
20260505054325 42 243 0.0 5.0 0.00 0.00 0.00 57 1001.1
20260505053823 42 75 2.0 5.0 0.00 0.00 0.00 57 1001.1
20260505053320 42 226 2.0 5.0 0.00 0.00 0.00 58 1001.2
20260505052817 42 286 4.0 7.0 0.00 0.00 0.00 58 1001.2
20260505052314 42 266 0.0 5.0 0.00 0.00 0.00 58 1001.1
20260505051811 42 142 0.0 5.0 0.00 0.00 0.00 57 1001.0
20260505051308 42 302 2.0 4.0 0.00 0.00 0.00 57 1000.8
20260505050806 42 219 0.0 7.0 0.00 0.00 0.00 57 1001.0
20260505050305 42 246 0.0 3.0 0.00 0.00 0.00 58 1001.0
20260505041734 44 298 4.0 10.0 0.00 0.00 0.00 54 1001.2
20260505041231 44 271 3.0 15.0 0.00 0.00 0.00 54 1001.0
20260505040729 44 317 3.0 17.0 0.00 0.00 0.00 53 1000.9
20260505040226 44 305 5.0 13.0 0.00 0.00 0.00 53 1001.0
20260505035723 44 352 4.0 10.0 0.00 0.00 0.00 53 1000.7
20260505035219 45 19 2.0 13.0 0.00 0.00 0.00 52 1000.7
20260505034716 45 302 7.0 13.0 0.00 0.00 0.00 52 1000.9
20260505034213 45 296 6.0 11.0 0.00 0.00 0.00 52 1000.9
20260505033709 46 307 6.0 16.0 0.00 0.00 0.00 51 1000.9
20260505033207 46 290 5.0 18.0 0.00 0.00 0.00 51 1000.6
20260505032705 46 281 3.0 13.0 0.00 0.00 0.00 52 1000.8
20260505032200 46 25 2.0 17.0 0.00 0.00 0.00 50 1001.0
20260505031658 47 327 10.0 22.0 0.00 0.00 0.00 51 1000.7
20260505031154 47 317 6.0 22.0 0.00 0.00 0.00 50 1001.0
20260505030651 47 271 4.0 17.0 0.00 0.00 0.00 51 1000.8
20260505030147 47 293 2.0 16.0 0.00 0.00 0.00 51 1000.5
20260505025643 48 300 7.0 17.0 0.00 0.00 0.00 50 1000.5
20260505025142 48 298 4.0 16.0 0.00 0.00 0.00 49 1000.3
20260505024639 48 282 6.0 17.0 0.00 0.00 0.00 48 1000.3
20260505024136 48 306 8.0 11.0 0.00 0.00 0.00 49 1000.0
20260505023633 48 301 5.0 16.0 0.00 0.00 0.00 49 1000.1
20260505023131 48 314 6.0 19.0 0.00 0.00 0.00 48 999.8
20260505022628 48 343 5.0 14.0 0.00 0.00 0.00 49 999.8
20260505022125 49 332 11.0 17.0 0.00 0.00 0.00 48 999.6
20260505021622 49 333 6.0 12.0 0.00 0.00 0.00 49 999.5
20260505021118 49 267 3.0 15.0 0.00 0.00 0.00 48 999.4
20260505020614 49 289 4.0 16.0 0.00 0.00 0.00 48 999.4
20260505020110 49 316 6.0 12.0 0.00 0.00 0.00 48 999.4
20260505015608 50 298 3.0 14.0 0.00 0.00 0.00 47 999.2
20260505015104 50 324 7.0 21.0 0.00 0.00 0.00 46 999.1
20260505014601 50 347 13.0 19.0 0.00 0.00 0.00 46 998.9
20260505014058 50 283 4.0 15.0 0.00 0.00 0.00 46 998.7
20260505013555 51 212 2.0 14.0 0.00 0.00 0.00 47 998.8
20260505013052 51 343 7.0 22.0 0.00 0.00 0.00 46 998.8
20260505012550 51 298 6.0 20.0 0.00 0.00 0.00 47 998.7
20260505012047 51 309 10.0 17.0 0.00 0.00 0.00 47 998.4
20260505011543 51 303 8.0 17.0 0.00 0.00 0.00 47 998.4
20260505011040 52 310 5.0 22.0 0.00 0.00 0.00 46 998.1
20260505010535 52 264 5.0 17.0 0.00 0.00 0.00 47 998.0
20260505010032 52 308 9.0 19.0 0.00 0.00 0.00 46 998.0
20260505005528 53 318 7.0 18.0 0.00 0.00 0.00 46 998.0
20260505005026 53 115 5.0 15.0 0.00 0.00 0.00 46 997.9
20260505004523 53 287 6.0 16.0 0.00 0.00 0.00 45 997.8
20260505004020 53 329 8.0 32.0 0.00 0.00 0.00 45 997.4
20260505003517 54 254 5.0 18.0 0.00 0.00 0.00 46 997.5
20260505003015 54 286 8.0 21.0 0.00 0.00 0.00 45 997.6
20260505002509 54 319 4.0 15.0 0.00 0.00 0.00 44 997.4
20260505002008 55 319 3.0 21.0 0.00 0.00 0.00 44 997.5
20260505001506 55 259 11.0 14.0 0.00 0.00 0.00 44 997.4
20260505001002 55 327 7.0 23.0 0.00 0.00 0.00 44 997.3
20260505000500 55 354 4.0 17.0 0.00 0.00 0.00 44 997.3
20260504235957 55 278 5.0 24.0 0.00 0.00 0.00 44 997.2
20260504235454 56 327 5.0 15.0 0.00 0.00 0.00 43 997.1
20260504234950 56 25 3.0 20.0 0.00 0.00 0.00 43 997.0
20260504234448 57 263 7.0 22.0 0.00 0.00 0.00 41 996.9
20260504233944 57 295 6.0 20.0 0.00 0.00 0.00 41 997.2
20260504233440 57 352 5.0 21.0 0.00 0.00 0.00 40 997.1
20260504232937 57 267 4.0 20.0 0.00 0.00 0.00 41 996.7
20260504232434 58 287 8.0 22.0 0.00 0.00 0.00 41 996.8
20260504231931 58 288 4.0 24.0 0.00 0.00 0.00 40 996.6
20260504231427 59 13 5.0 19.0 0.00 0.00 0.00 39 996.6
20260504230924 60 308 9.0 24.0 0.00 0.00 0.00 39 996.5
20260504230421 59 294 5.0 23.0 0.00 0.00 0.00 40 996.5
20260504225920 59 159 5.0 16.0 0.00 0.00 0.00 40 996.5
20260504225416 59 330 13.0 26.0 0.00 0.00 0.00 39 996.3
20260504224914 60 309 7.0 24.0 0.00 0.00 0.00 38 996.1
20260504224410 61 319 4.0 19.0 0.00 0.00 0.00 36 996.0
20260504223907 60 22 5.0 28.0 0.00 0.00 0.00 37 996.0
20260504223402 61 88 4.0 26.0 0.00 0.00 0.00 36 995.9
20260504222859 60 313 6.0 30.0 0.00 0.00 0.00 36 995.9
20260504222355 60 125 13.0 20.0 0.00 0.00 0.00 35 995.9
20260504221854 62 320 9.0 18.0 0.00 0.00 0.00 37 995.6
20260504221350 62 322 7.0 20.0 0.00 0.00 0.00 37 995.4
20260504220848 63 325 12.0 20.0 0.00 0.00 0.00 38 995.5
20260504220344 62 336 5.0 23.0 0.00 0.00 0.00 39 995.3
20260504215842 62 261 5.0 17.0 0.00 0.00 0.00 38 995.6
20260504215338 62 321 4.0 18.0 0.00 0.00 0.00 37 995.7
20260504214834 62 289 4.0 18.0 0.00 0.00 0.00 37 995.4
20260504214331 62 332 6.0 22.0 0.00 0.00 0.00 36 995.6
20260504213828 62 296 11.0 25.0 0.00 0.00 0.00 35 995.4
20260504213323 63 306 5.0 13.0 0.00 0.00 0.00 37 995.2
20260504212821 61 342 5.0 21.0 0.00 0.00 0.00 34 995.2
20260504212317 61 322 7.0 35.0 0.00 0.00 0.00 34 995.2
20260504211815 61 325 14.0 30.0 0.00 0.00 0.00 33 995.2
20260504211311 63 320 10.0 22.0 0.00 0.00 0.00 33 995.1
20260504210808 64 277 7.0 18.0 0.00 0.00 0.00 32 995.3
20260504210306 64 56 4.0 19.0 0.00 0.00 0.00 32 995.2
20260504205803 65 332 13.0 29.0 0.00 0.00 0.00 30 995.1
20260504205300 65 78 4.0 25.0 0.00 0.00 0.00 29 995.0
20260504204758 64 292 8.0 31.0 0.00 0.00 0.00 29 995.0
20260504204256 65 306 7.0 24.0 0.00 0.00 0.00 30 994.9
20260504203756 64 316 5.0 31.0 0.00 0.00 0.00 28 995.1
20260504203252 65 319 7.0 13.0 0.00 0.00 0.00 28 994.8
20260504202747 66 346 2.0 14.0 0.00 0.00 0.00 28 994.5
20260504202245 66 86 5.0 11.0 0.00 0.00 0.00 29 994.5
20260504201741 66 99 7.0 22.0 0.00 0.00 0.00 28 994.6
20260504201238 66 307 8.0 20.0 0.00 0.00 0.00 28 994.7
20260504200737 66 44 3.0 14.0 0.00 0.00 0.00 30 994.6
20260504200232 66 187 2.0 16.0 0.00 0.00 0.00 29 994.6
20260504195729 66 317 4.0 22.0 0.00 0.00 0.00 26 994.7
20260504195225 66 148 4.0 20.0 0.00 0.00 0.00 29 994.7
20260504194722 65 352 4.0 17.0 0.00 0.00 0.00 31 994.6
20260504194218 65 293 5.0 20.0 0.00 0.00 0.00 31 994.5
20260504193714 65 350 6.0 15.0 0.00 0.00 0.00 34 994.6
20260504193212 65 28 3.0 12.0 0.00 0.00 0.00 34 994.7
20260504192710 65 309 5.0 20.0 0.00 0.00 0.00 34 994.4
20260504192208 65 145 3.0 19.0 0.00 0.00 0.00 34 994.5
20260504191706 65 84 2.0 21.0 0.00 0.00 0.00 35 994.3
20260504191203 67 311 10.0 26.0 0.00 0.00 0.00 32 994.3
20260504190658 66 137 6.0 15.0 0.00 0.00 0.00 34 994.1
20260504190154 66 260 5.0 21.0 0.00 0.00 0.00 33 994.3
20260504185651 66 280 3.0 9.0 0.00 0.00 0.00 34 994.4
20260504185148 65 150 5.0 10.0 0.00 0.00 0.00 34 994.2
20260504184644 65 327 3.0 16.0 0.00 0.00 0.00 33 994.2
20260504184139 66 284 6.0 16.0 0.00 0.00 0.00 33 994.1
20260504183636 66 221 3.0 18.0 0.00 0.00 0.00 32 994.0
20260504183134 66 336 5.0 21.0 0.00 0.00 0.00 30 994.0
20260504182631 66 262 2.0 15.0 0.00 0.00 0.00 36 993.9
20260504182129 66 1 2.0 19.0 0.00 0.00 0.00 36 993.9
20260504181626 66 186 3.0 15.0 0.00 0.00 0.00 35 993.9
20260504181123 66 323 9.0 13.0 0.00 0.00 0.00 35 993.8
20260504180622 66 127 4.0 18.0 0.00 0.00 0.00 35 993.8
20260504180121 67 311 4.0 11.0 0.00 0.00 0.00 34 993.8
20260504175618 68 314 5.0 10.0 0.00 0.00 0.00 35 993.7
20260504175114 67 222 2.0 11.0 0.00 0.00 0.00 33 993.8
20260504174613 66 244 3.0 16.0 0.00 0.00 0.00 33 993.7
20260504174109 67 276 4.0 31.0 0.00 0.00 0.00 32 993.7
20260504173606 67 324 10.0 17.0 0.00 0.00 0.00 34 993.6
20260504173104 67 321 10.0 27.0 0.00 0.00 0.00 33 993.5
20260504172559 67 312 6.0 11.0 0.00 0.00 0.00 33 993.6
20260504172056 67 322 2.0 18.0 0.00 0.00 0.00 34 993.5
20260504171553 67 275 5.0 13.0 0.00 0.00 0.00 34 993.6
20260504171050 67 322 3.0 15.0 0.00 0.00 0.00 34 993.5
20260504170545 67 247 2.0 16.0 0.00 0.00 0.00 35 993.3
20260504150924 65 275 3.0 15.0 0.00 0.00 0.00 47 993.1
20260504150421 65 48 3.0 20.0 0.00 0.00 0.00 47 992.8
20260504140847 65 333 4.0 15.0 0.00 0.00 0.00 45 992.6
20260504140343 65 204 3.0 15.0 0.00 0.00 0.00 45 992.7
20260504130812 61 216 4.0 11.0 0.00 0.00 0.00 48 992.4
20260504130308 60 232 5.0 10.0 0.00 0.00 0.00 52 992.4
20260504120232 55 212 11.0 14.0 0.00 0.00 0.00 55 992.5
20260504110659 52 236 3.0 10.0 0.00 0.00 0.00 57 993.0
20260504110155 52 220 6.0 10.0 0.00 0.00 0.00 57 993.4
20260504100615 52 224 7.0 10.0 0.00 0.00 0.00 55 993.9
20260504100114 52 225 6.0 11.0 0.00 0.00 0.00 55 994.0
20260504082003 54 218 7.0 11.0 0.00 0.00 0.00 50 995.3
20260504081501 53 214 3.0 8.0 0.00 0.00 0.00 54 995.3
20260504080955 52 216 5.0 8.0 0.00 0.00 0.00 54 995.5
20260504080452 52 221 7.0 8.0 0.00 0.00 0.00 54 995.5